,,Stat6,,Stat2,,Stat8,,Stat9,,Stat10,,Wind1,,Wind1,
time,status,PA1M_AVG,status,PR1M_SUM,status,RH1M_AVG,status,SR1M_AVG,status,TA1M_AVG,status,W1dAve1m,status,W1sAve1m,
2007-01-11, 07:00:02,VALID,918.403,VALID,0,VALID,100,VALID,-0.0849042,VALID,20.324,VALID,42,VALID,0.627858,
2007-01-11, 07:01:00,VALID,918.42,VALID,0,VALID,100,VALID,-0.0849042,VALID,20.3377,VALID,42,VALID,0.505035,
2007-01-11, 07:02:00,VALID,918.42,VALID,0,VALID,100,VALID,-0.101885,VALID,20.3471,VALID,42,VALID,0.583519,
2007-01-11, 07:03:00,VALID,918.42,VALID,0,VALID,100,VALID,-0.101885,VALID,20.3471,VALID,42,VALID,0.635789,
2007-01-11, 07:04:00,VALID,918.423,VALID,0,VALID,100,VALID,-0.0849042,VALID,20.3501,VALID,42,VALID,0.579055,
2007-01-11, 07:05:01,VALID,918.422,VALID,0,VALID,100,VALID,-0.0849042,VALID,20.3727,VALID,42,VALID,0.522104,
2007-01-11, 07:06:00,VALID,918.407,VALID,0,VALID,100,VALID,-0.0849042,VALID,20.3921,VALID,42,VALID,0.592862,
2007-01-11, 07:07:01,VALID,918.411,VALID,0,VALID,100,VALID,-0.0679233,VALID,20.4273,VALID,42,VALID,0.641927,
2007-01-11, 07:08:00,VALID,918.406,VALID,0,VALID,100,VALID,-0.101885,VALID,20.4375,VALID,42,VALID,0.790737,
2007-01-11, 07:09:00,VALID,918.393,VALID,0,VALID,100,VALID,-0.0849042,VALID,20.4604,VALID,47,VALID,0.746181,
2007-01-11, 07:10:00,VALID,918.386,VALID,0,VALID,100,VALID,-0.0509425,VALID,20.4559,VALID,60,VALID,0.570668,
2007-01-11, 07:11:00,VALID,918.384,VALID,0,VALID,100,VALID,0,VALID,20.4683,VALID,68,VALID,0.518973,
2007-01-11, 07:12:00,VALID,918.37,VALID,0,VALID,100,VALID,0.0169808,VALID,20.4809,VALID,83,VALID,0.580412,
2007-01-11, 07:13:00,VALID,918.356,VALID,0,VALID,100,VALID,0,VALID,20.4973,VALID,83,VALID,0.556362,
2007-01-11, 07:14:00,VALID,918.359,VALID,0,VALID,99.999,VALID,0,VALID,20.5035,VALID,70,VALID,0.950358,
2007-01-11, 07:15:01,VALID,918.376,VALID,0,VALID,99.971,VALID,0.0169808,VALID,20.51,VALID,55,VALID,0.632635,
2007-01-11, 07:16:01,VALID,918.369,VALID,0,VALID,99.9519,VALID,0,VALID,20.5234,VALID,53,VALID,0.0348704,
2007-01-11, 07:17:00,VALID,918.345,VALID,0,VALID,99.91,VALID,0.0169808,VALID,20.5299,VALID,54,VALID,0.11128,
2007-01-11, 07:18:00,VALID,918.313,VALID,0,VALID,99.8604,VALID,0.0169808,VALID,20.5294,VALID,69,VALID,0.432528,
2007-01-11, 07:19:00,VALID,918.303,VALID,0,VALID,99.8146,VALID,0.0169808,VALID,20.5326,VALID,85,VALID,0.616461,
2007-01-11, 07:20:00,VALID,918.274,VALID,0,VALID,99.6607,VALID,0.0339617,VALID,20.5165,VALID,113,VALID,0.909268,
2007-01-11, 07:21:00,VALID,918.242,VALID,0,VALID,99.5628,VALID,0,VALID,20.517,VALID,115,VALID,0.748757,
2007-01-11, 07:22:00,VALID,918.236,VALID,0,VALID,99.5043,VALID,-0.0339617,VALID,20.5234,VALID,118,VALID,0.704215,
2007-01-11, 07:23:00,VALID,918.217,VALID,0,VALID,99.4268,VALID,0.0339617,VALID,20.5299,VALID,127,VALID,0.842262,
2007-01-11, 07:24:00,VALID,918.213,VALID,0,VALID,99.339,VALID,0,VALID,20.5113,VALID,134,VALID,1.00293,
2007-01-11, 07:25:00,VALID,918.212,VALID,0,VALID,99.3212,VALID,0,VALID,20.4879,VALID,118,VALID,0.897321,
2007-01-11, 07:26:01,VALID,918.232,VALID,0,VALID,99.3619,VALID,0,VALID,20.4812,VALID,130,VALID,0.531416,
2007-01-11, 07:27:00,VALID,918.22,VALID,0,VALID,99.3454,VALID,-0.0169808,VALID,20.4782,VALID,121,VALID,0.677024,
2007-01-11, 07:28:00,VALID,918.221,VALID,0,VALID,99.3161,VALID,0.0169808,VALID,20.4718,VALID,123,VALID,0.671165,
2007-01-11, 07:29:00,VALID,918.214,VALID,0,VALID,99.3505,VALID,0.0169808,VALID,20.4713,VALID,135,VALID,0.92081,
2007-01-11, 07:30:01,VALID,918.233,VALID,0,VALID,99.3594,VALID,0.0169808,VALID,20.4718,VALID,142,VALID,0.803499,
2007-01-11, 07:31:00,VALID,918.234,VALID,0,VALID,99.4891,VALID,0.0339617,VALID,20.4715,VALID,149,VALID,0.52846,
2007-01-11, 07:32:01,VALID,918.237,VALID,0,VALID,99.6099,VALID,0.0509425,VALID,20.4618,VALID,149,VALID,0.35032,
2007-01-11, 07:33:00,VALID,918.238,VALID,0,VALID,99.7307,VALID,0.0339617,VALID,20.472,VALID,140,VALID,0.948958,
2007-01-11, 07:34:00,VALID,918.213,VALID,0,VALID,99.7663,VALID,0.0169808,VALID,20.4487,VALID,140,VALID,1.08848,
2007-01-11, 07:35:00,VALID,918.194,VALID,0,VALID,99.8019,VALID,0.0169808,VALID,20.4489,VALID,129,VALID,0.792436,
2007-01-11, 07:36:01,VALID,918.173,VALID,0,VALID,99.8871,VALID,0.0339617,VALID,20.4295,VALID,131,VALID,0.916548,
2007-01-11, 07:37:00,VALID,918.157,VALID,0,VALID,99.9807,VALID,0.0169808,VALID,20.4199,VALID,137,VALID,0.704985,
2007-01-11, 07:38:00,VALID,918.152,VALID,0,VALID,100,VALID,0.0169808,VALID,20.4169,VALID,135,VALID,0.696615,
2007-01-11, 07:39:00,VALID,918.139,VALID,0,VALID,100,VALID,0,VALID,20.4037,VALID,127,VALID,0.792696,
2007-01-11, 07:40:00,VALID,918.124,VALID,0,VALID,100,VALID,-0.0169808,VALID,20.3948,VALID,122,VALID,1.19341,
2007-01-11, 07:41:00,VALID,918.092,VALID,0,VALID,100,VALID,-0.118866,VALID,20.3663,VALID,139,VALID,1.40417,
2007-01-11, 07:42:00,VALID,918.044,VALID,0,VALID,100,VALID,-0.101885,VALID,20.3539,VALID,132,VALID,1.49777,
2007-01-11, 07:43:01,VALID,918.006,VALID,0,VALID,100,VALID,-0.101885,VALID,20.338,VALID,113,VALID,1.25527,
2007-01-11, 07:44:01,VALID,918.007,VALID,0,VALID,100,VALID,-0.101885,VALID,20.3442,VALID,115,VALID,0.840376,
2007-01-11, 07:45:01,VALID,918.018,VALID,0,VALID,100,VALID,-0.101885,VALID,20.3568,VALID,146,VALID,0.116071,
2007-01-11, 07:46:01,VALID,917.995,VALID,0,VALID,100,VALID,-0.101885,VALID,20.373,VALID,147,VALID,0.113281,
2007-01-11, 07:47:00,VALID,917.959,VALID,0,VALID,100,VALID,-0.101885,VALID,20.3765,VALID,138,VALID,0.381098,
2007-01-11, 07:48:01,VALID,917.922,VALID,0,VALID,100,VALID,-0.101885,VALID,20.3864,VALID,124,VALID,0.962028,
2007-01-11, 07:49:01,VALID,917.885,VALID,0,VALID,100,VALID,-0.101885,VALID,20.3829,VALID,115,VALID,0.939808,
2007-01-11, 07:50:01,VALID,917.85,VALID,0,VALID,100,VALID,-0.0849042,VALID,20.3767,VALID,106,VALID,0.865916,
2007-01-11, 07:51:01,VALID,917.812,VALID,0,VALID,100,VALID,-0.0849042,VALID,20.3571,VALID,130,VALID,1.2699,
2007-01-11, 07:52:00,VALID,917.785,VALID,0,VALID,100,VALID,-0.101885,VALID,20.3318,VALID,135,VALID,1.07755,
2007-01-11, 07:53:01,VALID,917.78,VALID,0,VALID,100,VALID,-0.101885,VALID,20.3089,VALID,106,VALID,0.74272,
2007-01-11, 07:54:01,VALID,917.762,VALID,0,VALID,100,VALID,-0.101885,VALID,20.2855,VALID,88,VALID,0.948047,
2007-01-11, 07:55:01,VALID,917.754,VALID,0,VALID,100,VALID,-0.101885,VALID,20.3022,VALID,65,VALID,1.04043,
2007-01-11, 07:56:01,VALID,917.734,VALID,0,VALID,100,VALID,-0.0849042,VALID,20.2858,VALID,64,VALID,1.49432,
2007-01-11, 07:57:01,VALID,917.733,VALID,0,VALID,100,VALID,-0.101885,VALID,20.2796,VALID,71,VALID,1.28804,
2007-01-11, 07:58:01,VALID,917.739,VALID,0,VALID,100,VALID,-0.101885,VALID,20.2734,VALID,58,VALID,0.669444,
2007-01-11, 07:59:01,VALID,917.763,VALID,0,VALID,100,VALID,-0.0679233,VALID,20.2761,VALID,349,VALID,0.584872,
2007-01-11, 08:00:01,VALID,917.765,VALID,0,VALID,100,VALID,-0.101885,VALID,20.2697,VALID,324,VALID,0.893999,
2007-01-11, 08:01:01,VALID,917.759,VALID,0,VALID,100,VALID,-0.101885,VALID,20.257,VALID,324,VALID,1.25819,
2007-01-11, 08:02:01,VALID,917.755,VALID,0,VALID,100,VALID,-0.0849042,VALID,20.2371,VALID,352,VALID,0.543164,
2007-01-11, 08:03:01,VALID,917.735,VALID,0,VALID,100,VALID,-0.0849042,VALID,20.2145,VALID,10,VALID,0.411882,
2007-01-11, 08:04:01,VALID,917.728,VALID,0,VALID,100,VALID,-0.0849042,VALID,20.2376,VALID,44,VALID,0.823803,
2007-01-11, 08:05:01,VALID,917.727,VALID,0,VALID,100,VALID,-0.101885,VALID,20.2538,VALID,71,VALID,0.671875,
2007-01-11, 08:06:00,VALID,917.734,VALID,0,VALID,100,VALID,-0.0679233,VALID,20.2697,VALID,73,VALID,0.261161,
2007-01-11, 08:07:01,VALID,917.737,VALID,0,VALID,100,VALID,-0.101885,VALID,20.2799,VALID,73,VALID,0.271129,
2007-01-11, 08:08:01,VALID,917.727,VALID,0,VALID,100,VALID,-0.0849042,VALID,20.2793,VALID,84,VALID,0.654204,
2007-01-11, 08:09:01,VALID,917.724,VALID,0,VALID,100,VALID,0,VALID,20.3014,VALID,78,VALID,0.652435,
2007-01-11, 08:10:01,VALID,917.726,VALID,0,VALID,100,VALID,-0.0509425,VALID,20.3206,VALID,81,VALID,0.661258,
2007-01-11, 08:11:01,VALID,917.714,VALID,0,VALID,100,VALID,-0.0339617,VALID,20.3144,VALID,81,VALID,0.777435,
2007-01-11, 08:12:01,VALID,917.689,VALID,0,VALID,100,VALID,-0.0509425,VALID,20.3216,VALID,71,VALID,0.914608,
2007-01-11, 08:13:01,VALID,917.68,VALID,0,VALID,100,VALID,-0.0849042,VALID,20.3119,VALID,67,VALID,0.556593,
2007-01-11, 08:14:01,VALID,917.67,VALID,0,VALID,100,VALID,-0.0339617,VALID,20.3116,VALID,39,VALID,0.653088,
2007-01-11, 08:15:01,VALID,917.647,VALID,0,VALID,100,VALID,-0.0339617,VALID,20.3052,VALID,25,VALID,0.857772,
2007-01-11, 08:16:01,VALID,917.606,VALID,0,VALID,100,VALID,-0.101885,VALID,20.2923,VALID,36,VALID,1.02274,
2007-01-11, 08:17:01,VALID,917.588,VALID,0,VALID,100,VALID,-0.0679233,VALID,20.2627,VALID,37,VALID,1.15234,
2007-01-11, 08:18:01,VALID,917.595,VALID,0,VALID,99.999,VALID,-0.101885,VALID,20.2562,VALID,30,VALID,0.884629,
2007-01-11, 08:19:01,VALID,917.605,VALID,0,VALID,99.9964,VALID,-0.0679233,VALID,20.25,VALID,25,VALID,0.561012,
2007-01-11, 08:20:01,VALID,917.597,VALID,0,VALID,99.9931,VALID,-0.0509425,VALID,20.2369,VALID,41,VALID,0.609976,
2007-01-11, 08:21:01,VALID,917.607,VALID,0,VALID,99.9919,VALID,-0.0679233,VALID,20.2404,VALID,42,VALID,0.700521,
2007-01-11, 08:22:01,VALID,917.603,VALID,0,VALID,99.8324,VALID,-0.0169808,VALID,20.2307,VALID,40,VALID,0.893102,
2007-01-11, 08:23:01,VALID,917.599,VALID,0,VALID,99.7714,VALID,-0.0509425,VALID,20.2468,VALID,33,VALID,1.08687,
2007-01-11, 08:24:01,VALID,917.605,VALID,0,VALID,99.5679,VALID,-0.0679233,VALID,20.2463,VALID,34,VALID,1.12426,
2007-01-11, 08:25:01,VALID,917.601,VALID,0,VALID,99.5577,VALID,-0.0339617,VALID,20.2759,VALID,12,VALID,0.758185,
2007-01-11, 08:26:01,VALID,917.586,VALID,0,VALID,99.4624,VALID,0.0679233,VALID,20.2641,VALID,22,VALID,0.625186,
2007-01-11, 08:27:01,VALID,917.558,VALID,0,VALID,99.3861,VALID,0.0169808,VALID,20.2674,VALID,33,VALID,0.436547,
2007-01-11, 08:28:01,VALID,917.533,VALID,0,VALID,99.3543,VALID,0.0509425,VALID,20.2843,VALID,62,VALID,0.568216,
2007-01-11, 08:29:01,VALID,917.527,VALID,0,VALID,99.3797,VALID,0.0169808,VALID,20.2872,VALID,54,VALID,0.255208,
2007-01-11, 08:30:01,VALID,917.523,VALID,0,VALID,99.4369,VALID,0.0849042,VALID,20.2932,VALID,17,VALID,0.384588,
2007-01-11, 08:31:01,VALID,917.505,VALID,0,VALID,99.4344,VALID,0.0169808,VALID,20.3064,VALID,351,VALID,0.689631,
2007-01-11, 08:32:00,VALID,917.495,VALID,0,VALID,99.2487,VALID,0.0509425,VALID,20.3071,VALID,348,VALID,0.759233,
2007-01-11, 08:33:00,VALID,917.47,VALID,0,VALID,99.0987,VALID,0.0509425,VALID,20.2937,VALID,1,VALID,0.454397,
2007-01-11, 08:34:00,VALID,917.444,VALID,0,VALID,99.1127,VALID,0.0509425,VALID,20.29,VALID,355,VALID,0.586682,
2007-01-11, 08:35:00,VALID,917.419,VALID,0,VALID,99.0478,VALID,0.0849042,VALID,20.2905,VALID,334,VALID,0.390799,
2007-01-11, 08:36:00,VALID,917.402,VALID,0,VALID,99.0249,VALID,0.0679233,VALID,20.3098,VALID,333,VALID,0.00472384,
2007-01-11, 08:37:00,VALID,917.372,VALID,0,VALID,98.8571,VALID,0.0679233,VALID,20.2999,VALID,333,VALID,0.197049,
2007-01-11, 08:38:00,VALID,917.346,VALID,0,VALID,98.8469,VALID,0.0849042,VALID,20.2994,VALID,333,VALID,0.266493,
2007-01-11, 08:39:00,VALID,917.316,VALID,0,VALID,98.8126,VALID,0.0339617,VALID,20.3195,VALID,342,VALID,0.475204,
2007-01-11, 08:40:00,VALID,917.291,VALID,0,VALID,98.6778,VALID,0.0679233,VALID,20.3034,VALID,1,VALID,0.486852,
2007-01-11, 08:41:00,VALID,917.27,VALID,0,VALID,98.7782,VALID,-0.0339617,VALID,20.3074,VALID,11,VALID,0.452398,
2007-01-11, 08:42:00,VALID,917.257,VALID,0,VALID,98.824,VALID,0,VALID,20.328,VALID,14,VALID,0.387355,
2007-01-11, 08:43:00,VALID,917.255,VALID,0,VALID,98.7973,VALID,-0.0509425,VALID,20.3109,VALID,30,VALID,0.596128,
2007-01-11, 08:44:00,VALID,917.249,VALID,0,VALID,98.7058,VALID,0,VALID,20.298,VALID,56,VALID,0.830382,
2007-01-11, 08:45:00,VALID,917.269,VALID,0,VALID,98.8024,VALID,-0.0509425,VALID,20.3017,VALID,62,VALID,0.695313,
2007-01-11, 08:46:00,VALID,917.297,VALID,0,VALID,98.8151,VALID,-0.0509425,VALID,20.3009,VALID,71,VALID,0.563045,
2007-01-11, 08:47:00,VALID,917.32,VALID,0,VALID,98.8456,VALID,-0.0339617,VALID,20.3084,VALID,71,VALID,0.248476,
2007-01-11, 08:48:00,VALID,917.343,VALID,0,VALID,98.913,VALID,0,VALID,20.3047,VALID,65,VALID,0.625,
2007-01-11, 08:49:00,VALID,917.347,VALID,0,VALID,99.016,VALID,-0.0509425,VALID,20.2912,VALID,53,VALID,0.589504,
2007-01-11, 08:50:00,VALID,917.351,VALID,0,VALID,99.0936,VALID,-0.0169808,VALID,20.2955,VALID,55,VALID,0.65263,
2007-01-11, 08:51:00,VALID,917.335,VALID,0,VALID,99.1775,VALID,0,VALID,20.2721,VALID,62,VALID,0.811928,
2007-01-11, 08:52:00,VALID,917.311,VALID,0,VALID,99.2869,VALID,-0.0169808,VALID,20.2627,VALID,62,VALID,0.977108,
2007-01-11, 08:53:00,VALID,917.292,VALID,0,VALID,99.3606,VALID,-0.0509425,VALID,20.2562,VALID,63,VALID,0.780869,
2007-01-11, 08:54:00,VALID,917.262,VALID,0,VALID,99.456,VALID,0,VALID,20.2433,VALID,63,VALID,0.494093,
2007-01-11, 08:55:00,VALID,917.233,VALID,0,VALID,99.4954,VALID,-0.0509425,VALID,20.2267,VALID,63,VALID,0.444404,
2007-01-11, 08:56:00,VALID,917.189,VALID,0,VALID,99.5755,VALID,-0.0169808,VALID,20.2272,VALID,63,VALID,0.18821,
2007-01-11, 08:57:00,VALID,917.182,VALID,0,VALID,99.648,VALID,-0.0679233,VALID,20.211,VALID,63,VALID,0.194404,
2007-01-11, 08:58:00,VALID,917.182,VALID,0,VALID,99.7358,VALID,-0.0169808,VALID,20.2081,VALID,63,VALID,0,
2007-01-11, 08:59:00,VALID,917.175,VALID,0,VALID,99.8006,VALID,-0.0169808,VALID,20.2145,VALID,63,VALID,0.0946584,
2007-01-11, 09:00:00,VALID,917.19,VALID,0,VALID,99.8489,VALID,-0.0169808,VALID,20.1976,VALID,63,VALID,0.0836104,
2007-01-11, 09:01:00,VALID,917.203,VALID,0,VALID,99.8337,VALID,-0.0509425,VALID,20.2081,VALID,63,VALID,0.412348,
2007-01-11, 09:02:00,VALID,917.206,VALID,0,VALID,99.8362,VALID,-0.0509425,VALID,20.1952,VALID,63,VALID,0.580487,
2007-01-11, 09:03:00,VALID,917.225,VALID,0,VALID,99.7765,VALID,-0.0509425,VALID,20.1887,VALID,63,VALID,0.518111,
2007-01-11, 09:04:00,VALID,917.216,VALID,0,VALID,99.7892,VALID,-0.0169808,VALID,20.1557,VALID,63,VALID,0.19963,
2007-01-11, 09:05:00,VALID,917.212,VALID,0,VALID,99.84,VALID,-0.0679233,VALID,20.1825,VALID,63,VALID,0.0053267,
2007-01-11, 09:06:00,VALID,917.202,VALID,0,VALID,99.8375,VALID,-0.0169808,VALID,20.1681,VALID,64,VALID,0.404344,
2007-01-11, 09:07:00,VALID,917.197,VALID,0,VALID,99.5946,VALID,-0.0509425,VALID,20.1529,VALID,52,VALID,1.09996,
2007-01-11, 09:08:00,VALID,917.192,VALID,0,VALID,99.5094,VALID,-0.0339617,VALID,20.1465,VALID,58,VALID,0.740327,
2007-01-11, 09:09:00,VALID,917.182,VALID,0,VALID,99.512,VALID,-0.0339617,VALID,20.1631,VALID,40,VALID,0.360899,
2007-01-11, 09:10:00,VALID,917.173,VALID,0,VALID,99.5221,VALID,-0.0169808,VALID,20.1629,VALID,35,VALID,0.132643,
2007-01-11, 09:11:00,VALID,917.169,VALID,0,VALID,99.5755,VALID,0.0169808,VALID,20.1452,VALID,34,VALID,0.236914,
2007-01-11, 09:12:00,VALID,917.157,VALID,0,VALID,99.4293,VALID,0,VALID,20.1551,VALID,26,VALID,0.741824,
2007-01-11, 09:13:00,VALID,917.133,VALID,0,VALID,99.4738,VALID,0,VALID,20.1517,VALID,21,VALID,0.577553,
2007-01-11, 09:14:00,VALID,917.113,VALID,0,VALID,99.4916,VALID,0,VALID,20.145,VALID,36,VALID,0.42024,
2007-01-11, 09:15:00,VALID,917.097,VALID,0.2,VALID,99.4306,VALID,0,VALID,20.1355,VALID,32,VALID,0.785326,
2007-01-11, 09:16:00,VALID,917.086,VALID,0,VALID,99.5094,VALID,0,VALID,20.136,VALID,40,VALID,0.534896,
2007-01-11, 09:17:00,VALID,917.083,VALID,0,VALID,99.5209,VALID,0.0339617,VALID,20.1263,VALID,47,VALID,0.492697,
2007-01-11, 09:18:00,VALID,917.088,VALID,0,VALID,99.6175,VALID,0,VALID,20.1196,VALID,42,VALID,0.145952,
2007-01-11, 09:19:00,VALID,917.091,VALID,0,VALID,99.6569,VALID,0,VALID,20.1226,VALID,9,VALID,0.396532,
2007-01-11, 09:20:00,VALID,917.08,VALID,0,VALID,99.6048,VALID,0,VALID,20.106,VALID,10,VALID,0.390451,
2007-01-11, 09:21:00,VALID,917.072,VALID,0,VALID,99.5921,VALID,0.0169808,VALID,20.0898,VALID,13,VALID,0.09375,
2007-01-11, 09:22:00,VALID,917.061,VALID,0,VALID,99.6073,VALID,0,VALID,20.1008,VALID,13,VALID,0.278054,
2007-01-11, 09:23:00,VALID,917.053,VALID,0,VALID,99.6874,VALID,0,VALID,20.1003,VALID,13,VALID,0.237393,
2007-01-11, 09:24:00,VALID,917.048,VALID,0,VALID,99.7625,VALID,-0.0169808,VALID,20.0874,VALID,13,VALID,0.201126,
2007-01-11, 09:25:00,VALID,917.04,VALID,0,VALID,99.8667,VALID,0,VALID,20.0839,VALID,14,VALID,0.283249,
2007-01-11, 09:26:00,VALID,917.026,VALID,0,VALID,99.9616,VALID,0,VALID,20.0943,VALID,22,VALID,0.176258,
2007-01-11, 09:27:00,VALID,917.022,VALID,0,VALID,99.8413,VALID,0,VALID,20.0943,VALID,45,VALID,0.768229,
2007-01-11, 09:28:00,VALID,917.019,VALID,0,VALID,99.9151,VALID,0,VALID,20.0841,VALID,50,VALID,0.541853,
2007-01-11, 09:29:00,VALID,917.023,VALID,0,VALID,99.8655,VALID,-0.0339617,VALID,20.068,VALID,33,VALID,0.926599,
2007-01-11, 09:30:00,VALID,917.021,VALID,0,VALID,99.8985,VALID,0,VALID,20.0521,VALID,17,VALID,0.605655,
2007-01-11, 09:31:00,VALID,917.013,VALID,0,VALID,99.9557,VALID,0,VALID,20.0362,VALID,39,VALID,0.803977,
2007-01-11, 09:32:00,VALID,917.024,VALID,0,VALID,99.9941,VALID,0,VALID,20.0265,VALID,52,VALID,0.794271,
2007-01-11, 09:33:00,VALID,917.026,VALID,0,VALID,100,VALID,0.0169808,VALID,20.03,VALID,53,VALID,0.894903,
2007-01-11, 09:34:00,VALID,917.02,VALID,0,VALID,100,VALID,0.0169808,VALID,20.0136,VALID,59,VALID,0.550959,
2007-01-11, 09:35:00,VALID,917.018,VALID,0,VALID,100,VALID,0,VALID,19.9972,VALID,43,VALID,1.14793,
2007-01-11, 09:36:00,VALID,917.011,VALID,0,VALID,100,VALID,0,VALID,19.991,VALID,45,VALID,1.03162,
2007-01-11, 09:37:00,VALID,916.997,VALID,0,VALID,100,VALID,-0.0169808,VALID,19.9811,VALID,42,VALID,0.815549,
2007-01-11, 09:38:00,VALID,916.991,VALID,0,VALID,100,VALID,-0.0169808,VALID,19.9813,VALID,46,VALID,0.782617,
2007-01-11, 09:39:00,VALID,916.986,VALID,0,VALID,100,VALID,0,VALID,19.9813,VALID,50,VALID,0.446354,
2007-01-11, 09:40:00,VALID,916.971,VALID,0,VALID,100,VALID,0,VALID,19.9848,VALID,50,VALID,0.155061,
2007-01-11, 09:41:00,VALID,916.977,VALID,0,VALID,100,VALID,0,VALID,19.9913,VALID,49,VALID,0,
2007-01-11, 09:42:00,VALID,916.984,VALID,0,VALID,100,VALID,0,VALID,19.9913,VALID,46,VALID,0.194222,
2007-01-11, 09:43:00,VALID,916.985,VALID,0,VALID,100,VALID,-0.0169808,VALID,19.9816,VALID,39,VALID,0.469866,
2007-01-11, 09:44:00,VALID,916.991,VALID,0,VALID,100,VALID,0,VALID,19.9553,VALID,42,VALID,1.0277,
2007-01-11, 09:45:00,VALID,916.987,VALID,0,VALID,100,VALID,-0.0339617,VALID,19.959,VALID,34,VALID,0.774132,
2007-01-11, 09:46:00,VALID,916.988,VALID,0,VALID,100,VALID,0,VALID,19.9625,VALID,52,VALID,0.967773,
2007-01-11, 09:47:00,VALID,916.996,VALID,0,VALID,100,VALID,-0.0339617,VALID,19.9496,VALID,46,VALID,1.01108,
2007-01-11, 09:48:00,VALID,917.005,VALID,0,VALID,100,VALID,-0.0509425,VALID,19.953,VALID,44,VALID,0.915206,
2007-01-11, 09:49:00,VALID,917.011,VALID,0,VALID,100,VALID,-0.0339617,VALID,19.956,VALID,55,VALID,1.08575,
2007-01-11, 09:50:00,VALID,917.003,VALID,0,VALID,100,VALID,-0.0339617,VALID,19.953,VALID,52,VALID,0.961538,
2007-01-11, 09:51:00,VALID,917.008,VALID,0,VALID,100,VALID,-0.0169808,VALID,19.9463,VALID,52,VALID,1.04976,
2007-01-11, 09:52:00,VALID,916.994,VALID,0,VALID,100,VALID,0,VALID,19.9366,VALID,52,VALID,1.12882,
2007-01-11, 09:53:00,VALID,916.962,VALID,0,VALID,100,VALID,-0.0169808,VALID,19.9399,VALID,49,VALID,1.15513,
2007-01-11, 09:54:00,VALID,916.926,VALID,0,VALID,100,VALID,-0.0339617,VALID,19.9332,VALID,58,VALID,1.25082,
2007-01-11, 09:55:00,VALID,916.907,VALID,0,VALID,100,VALID,-0.0339617,VALID,19.9135,VALID,59,VALID,0.982558,
2007-01-11, 09:56:00,VALID,916.906,VALID,0,VALID,100,VALID,-0.0339617,VALID,19.9337,VALID,52,VALID,0.698242,
2007-01-11, 09:57:00,VALID,916.914,VALID,0,VALID,100,VALID,0,VALID,19.9235,VALID,40,VALID,1.40149,
2007-01-11, 09:58:00,VALID,916.919,VALID,0,VALID,100,VALID,-0.0169808,VALID,19.9299,VALID,27,VALID,0.731213,
2007-01-11, 09:59:00,VALID,916.924,VALID,0,VALID,100,VALID,0,VALID,19.949,VALID,28,VALID,0.946987,
2007-01-11, 10:00:00,VALID,916.929,VALID,0,VALID,99.9827,VALID,0,VALID,19.9694,VALID,26,VALID,1.619,
2007-01-11, 10:01:00,VALID,916.918,VALID,0,VALID,99.8349,VALID,0.0169808,VALID,19.995,VALID,38,VALID,1.30309,
2007-01-11, 10:02:00,VALID,916.934,VALID,0,VALID,99.6722,VALID,0,VALID,20.0198,VALID,13,VALID,1.06822,
2007-01-11, 10:03:00,VALID,916.937,VALID,0,VALID,99.6073,VALID,-0.0169808,VALID,20.0496,VALID,14,VALID,0.982515,
2007-01-11, 10:04:00,VALID,916.948,VALID,0,VALID,99.5679,VALID,-0.0169808,VALID,20.0625,VALID,27,VALID,0.825107,
2007-01-11, 10:05:00,VALID,916.927,VALID,0,VALID,99.5463,VALID,-0.0169808,VALID,20.069,VALID,39,VALID,0.925037,
2007-01-11, 10:06:00,VALID,916.923,VALID,0,VALID,99.484,VALID,-0.0339617,VALID,20.0591,VALID,34,VALID,0.519531,
2007-01-11, 10:07:00,VALID,916.891,VALID,0,VALID,99.4547,VALID,0,VALID,20.0655,VALID,42,VALID,0.714504,
2007-01-11, 10:08:00,VALID,916.856,VALID,0,VALID,99.4725,VALID,-0.0339617,VALID,20.0787,VALID,48,VALID,0.103561,
2007-01-11, 10:09:00,VALID,916.826,VALID,0,VALID,99.4382,VALID,0,VALID,20.0685,VALID,45,VALID,0.27474,
2007-01-11, 10:10:00,VALID,916.803,VALID,0,VALID,99.4471,VALID,0.0509425,VALID,20.072,VALID,36,VALID,0.631037,
2007-01-11, 10:11:00,VALID,916.799,VALID,0,VALID,99.4166,VALID,0.0509425,VALID,20.0586,VALID,25,VALID,0.349301,
2007-01-11, 10:12:00,VALID,916.79,VALID,0,VALID,99.4738,VALID,0.0679233,VALID,20.065,VALID,328,VALID,0.507457,
2007-01-11, 10:13:00,VALID,916.799,VALID,0,VALID,99.5336,VALID,0.0509425,VALID,20.0583,VALID,336,VALID,0.177734,
2007-01-11, 10:14:00,VALID,916.789,VALID,0,VALID,99.5539,VALID,0.0849042,VALID,20.0618,VALID,336,VALID,0.483445,
2007-01-11, 10:15:00,VALID,916.808,VALID,0,VALID,99.615,VALID,0.0679233,VALID,20.0456,VALID,342,VALID,0.332889,
2007-01-11, 10:16:00,VALID,916.819,VALID,0,VALID,99.7141,VALID,0.0679233,VALID,20.0327,VALID,1,VALID,0.82976,
2007-01-11, 10:17:00,VALID,916.823,VALID,0,VALID,99.8184,VALID,0.0509425,VALID,20.0166,VALID,345,VALID,0.768043,
2007-01-11, 10:18:00,VALID,916.827,VALID,0.2,VALID,99.8922,VALID,0.0849042,VALID,20.0139,VALID,7,VALID,0.880269,
2007-01-11, 10:19:00,VALID,916.842,VALID,0,VALID,99.9914,VALID,0.0679233,VALID,19.9905,VALID,18,VALID,1.13263,
2007-01-11, 10:20:00,VALID,916.862,VALID,0.2,VALID,100,VALID,0.0849042,VALID,19.9776,VALID,21,VALID,1.03307,
2007-01-11, 10:21:00,VALID,916.878,VALID,0,VALID,100,VALID,0.0849042,VALID,19.9848,VALID,28,VALID,1.13077,
2007-01-11, 10:22:00,VALID,916.884,VALID,0,VALID,100,VALID,0.0849042,VALID,19.9448,VALID,14,VALID,1.1019,
2007-01-11, 10:23:00,VALID,916.879,VALID,0,VALID,100,VALID,0.0849042,VALID,19.9292,VALID,38,VALID,1.12767,
2007-01-11, 10:24:00,VALID,916.868,VALID,0,VALID,100,VALID,0.0509425,VALID,19.916,VALID,37,VALID,1.1479,
2007-01-11, 10:25:00,VALID,916.864,VALID,0,VALID,100,VALID,0.0509425,VALID,19.9205,VALID,45,VALID,0.994496,
2007-01-11, 10:26:00,VALID,916.87,VALID,0,VALID,100,VALID,-0.0169808,VALID,19.9121,VALID,50,VALID,0.986793,
2007-01-11, 10:27:00,VALID,916.881,VALID,0,VALID,100,VALID,-0.0169808,VALID,19.8885,VALID,53,VALID,1.19826,
2007-01-11, 10:28:00,VALID,916.883,VALID,0,VALID,100,VALID,-0.0169808,VALID,19.8924,VALID,39,VALID,1.30868,
2007-01-11, 10:29:00,VALID,916.901,VALID,0,VALID,100,VALID,-0.0169808,VALID,19.8823,VALID,40,VALID,1.54046,
2007-01-11, 10:30:00,VALID,916.916,VALID,0,VALID,100,VALID,-0.0169808,VALID,19.8855,VALID,42,VALID,0.806212,
2007-01-11, 10:31:00,VALID,916.922,VALID,0,VALID,100,VALID,-0.0169808,VALID,19.8892,VALID,26,VALID,0.693892,
2007-01-11, 10:32:00,VALID,916.914,VALID,0,VALID,100,VALID,-0.0679233,VALID,19.886,VALID,49,VALID,0.881177,
2007-01-11, 10:33:00,VALID,916.921,VALID,0,VALID,100,VALID,-0.0509425,VALID,19.8768,VALID,68,VALID,0.522758,
2007-01-11, 10:34:00,VALID,916.926,VALID,0,VALID,100,VALID,-0.0679233,VALID,19.8664,VALID,48,VALID,0.450036,
2007-01-11, 10:35:00,VALID,916.925,VALID,0,VALID,100,VALID,-0.0169808,VALID,19.8731,VALID,59,VALID,0.205382,
2007-01-11, 10:36:00,VALID,916.93,VALID,0,VALID,100,VALID,-0.0339617,VALID,19.8696,VALID,59,VALID,0.22218,